Weather History for Barrow, AK

Change the Weather History Date:

Saturday, August 16, 2014

  Actual Average Record
Temperature  
Mean Temperature 37 °F 39 °F  
Max Temperature 39 °F 44 °F 67 °F (2004)
Min Temperature 35 °F 34 °F 20 °F (1925)
Degree Days  
Heating Degree Days 28 26  
Month to date heating degree days 462 403  
Since 1 June heating degree days 2223 2030  
Since 1 July heating degree days 1290 1150  
Cooling Degree Days 0    
Month to date cooling degree days 0  
Year to date cooling degree days 0  
Since 1 June cooling degree days 0  
Moisture  
Dew Point 37 °F    
Average Humidity 0    
Maximum Humidity 0    
Minimum Humidity 0    
Precipitation  
Precipitation T in 0.03 in 0.25 in (1948)
Month to date precipitation 0.01 0.55  
Year to date precipitation 4.11 2.55  
Snow  
Snow 0.00 in 0.00 in 0.20 in (2006)
Month to date snowfall T 0.3  
Since 1 June snowfall 1.8 1.2  
Since 1 July snowfall 0.9 0.5  
Snow Depth 0.00 in    
Sea Level Pressure  
Sea Level Pressure 29.63 in    
Wind  
Wind Speed 21 mph (East)    
Max Wind Speed 32 mph    
Max Gust Speed 38 mph    
Visibility 2 miles    
Events Fog    
T = Trace of Precipitation, MM = Missing Value Source: NWS Daily Summary

Daily Weather History Graph

Daily Weather History Graph

Search for Another Location

Airport:

Trip Planner

Search our weather history database for the weather conditions in past years. The results will help you decide how hot, cold, wet, or windy it might be!

Date:

Astronomy

Aug. 16, 2014 Rise Set
Actual Time 5:12 AM AKDT 11:45 PM AKDT
Civil Twilight 3:03 AM AKDT 1:58 AM AKDT
Nautical Twilight Sun does not rise Sun does not rise
Astronomical Twilight Sun does not rise Sun does not rise
Moon 10:22 PM AKDT (8/16) 5:20 PM AKDT (8/16)
Length of Visible Light 22h 54m
Length of Day
18h 33m
Waning Gibbous, 57% of the Moon is Illuminated
Aug 16
Waning Gibbous
Aug 17
Last Quarter
Aug 25
New
Sep 2
First Quarter
Sep 8
Full

Hourly Weather History & Observations

Time (AKDT) Temp. Windchill Dew Point Humidity Pressure Visibility Wind Dir Wind Speed Gust Speed Precip Events Conditions
12:07 AM 36.0 °F 23.2 °F 36.0 °F 100% 29.74 in 5.0 mi East 28.8 mph 34.5 mph N/A   Overcast
12:53 AM 36.0 °F 23.9 °F 35.1 °F 97% 29.74 in 4.0 mi East 25.3 mph 34.5 mph 0.00 in   Light Drizzle
1:53 AM 35.1 °F 23.0 °F 35.1 °F 100% 29.74 in 4.0 mi East 24.2 mph 31.1 mph 0.00 in   Light Drizzle
2:33 AM 35.1 °F 23.3 °F 35.1 °F 100% 29.73 in 2.5 mi East 23.0 mph 29.9 mph 0.00 in   Light Drizzle
2:53 AM 35.1 °F 24.1 °F 35.1 °F 100% 29.73 in 2.5 mi East 19.6 mph 29.9 mph 0.00 in   Light Drizzle
3:53 AM 35.1 °F 23.0 °F 35.1 °F 100% 29.73 in 1.8 mi ENE 24.2 mph 28.8 mph 0.00 in   Light Drizzle
4:53 AM 35.1 °F 23.3 °F 35.1 °F 100% 29.72 in 0.8 mi ENE 23.0 mph - 0.00 in   Mist
5:15 AM 35.1 °F 23.3 °F 35.1 °F 100% 29.71 in 0.5 mi ENE 23.0 mph 28.8 mph N/A Fog Fog
5:22 AM 35.1 °F 23.8 °F 35.1 °F 100% 29.71 in 0.2 mi ENE 20.7 mph - N/A Fog Fog
5:53 AM 35.1 °F 23.5 °F 35.1 °F 100% 29.70 in 0.2 mi ENE 21.9 mph - N/A Fog Fog
6:44 AM 36.0 °F 25.0 °F 36.0 °F 100% 29.69 in 0.8 mi ENE 20.7 mph - N/A   Mist
6:53 AM 36.0 °F 24.4 °F 35.1 °F 97% 29.69 in 1.0 mi ENE 23.0 mph 29.9 mph N/A   Overcast
7:53 AM 36.0 °F 25.0 °F 36.0 °F 100% 29.67 in 3.0 mi NE 20.7 mph - 0.00 in   Light Drizzle
8:46 AM 37.0 °F 25.6 °F 36.0 °F 96% 29.65 in 5.0 mi ENE 24.2 mph 36.8 mph 0.00 in   Light Drizzle
8:53 AM 37.0 °F 25.4 °F 36.0 °F 96% 29.66 in 5.0 mi ENE 25.3 mph - 0.00 in   Light Drizzle
9:13 AM 37.0 °F 25.4 °F 36.0 °F 96% 29.64 in 2.5 mi ENE 25.3 mph 32.2 mph 0.00 in   Light Drizzle
9:36 AM 37.9 °F 26.3 °F 37.0 °F 97% 29.63 in 2.5 mi ENE 26.5 mph 34.5 mph 0.00 in   Light Drizzle
9:51 AM 37.4 °F 25.6 °F 37.4 °F 100% 29.63 in 1.8 mi ENE 26.5 mph 35.7 mph 0.00 in   Light Drizzle
9:53 AM 37.9 °F 26.3 °F 37.0 °F 97% 29.63 in 1.8 mi ENE 26.5 mph 35.7 mph 0.00 in   Light Drizzle
10:53 AM 37.9 °F 26.6 °F 37.9 °F 100% 29.63 in 1.0 mi ENE 25.3 mph - 0.00 in   Light Drizzle
11:25 AM 39.0 °F 28.0 °F 37.9 °F 96% 29.62 in 0.8 mi East 25.3 mph 36.8 mph 0.00 in   Light Drizzle
11:53 AM 39.0 °F 27.6 °F 37.9 °F 96% 29.62 in 0.8 mi East 27.6 mph 35.7 mph 0.00 in   Light Drizzle
12:35 PM 39.0 °F 27.8 °F 39.0 °F 100% 29.62 in 0.5 mi East 26.5 mph 35.7 mph 0.00 in Fog Light Drizzle
12:53 PM 39.0 °F 28.3 °F 39.0 °F 100% 29.62 in 0.5 mi East 24.2 mph 32.2 mph 0.00 in Fog Light Drizzle
1:38 PM 39.0 °F 28.8 °F 39.0 °F 100% 29.62 in 0.2 mi East 21.9 mph 33.4 mph 0.00 in Fog Light Drizzle
1:53 PM 39.0 °F 28.5 °F 39.0 °F 100% 29.62 in 0.2 mi East 23.0 mph 32.2 mph 0.00 in Fog Light Drizzle
2:07 PM 39.0 °F 28.5 °F 39.0 °F 100% 29.61 in 0.2 mi East 23.0 mph 34.5 mph 0.00 in Fog Light Drizzle
2:17 PM 39.0 °F 29.0 °F 39.0 °F 100% 29.61 in 0.5 mi East 20.7 mph 32.2 mph 0.00 in Fog Light Drizzle
2:53 PM 39.0 °F 29.0 °F 39.0 °F 100% 29.61 in 0.5 mi East 20.7 mph 31.1 mph 0.00 in Fog Light Drizzle
3:22 PM 39.0 °F 28.8 °F 39.0 °F 100% 29.60 in 0.8 mi East 21.9 mph 31.1 mph 0.00 in   Light Drizzle
3:42 PM 39.0 °F 28.5 °F 39.0 °F 100% 29.60 in 1.0 mi East 23.0 mph 33.4 mph 0.00 in   Light Drizzle
3:53 PM 39.0 °F 29.3 °F 39.0 °F 100% 29.61 in 1.2 mi East 19.6 mph 32.2 mph 0.00 in   Light Drizzle
4:15 PM 39.0 °F 28.5 °F 37.9 °F 96% 29.60 in 2.0 mi East 23.0 mph 32.2 mph 0.00 in   Light Drizzle
4:32 PM 39.0 °F 28.8 °F 37.9 °F 96% 29.60 in 3.0 mi East 21.9 mph 31.1 mph 0.00 in   Overcast
4:53 PM 37.9 °F 27.1 °F 36.0 °F 93% 29.59 in 4.0 mi East 23.0 mph 31.1 mph 0.00 in   Overcast
5:53 PM 37.0 °F 26.4 °F 35.1 °F 93% 29.58 in 3.0 mi East 20.7 mph 29.9 mph N/A   Overcast
6:53 PM 37.0 °F 26.4 °F 35.1 °F 93% 29.58 in 2.0 mi East 20.7 mph 28.8 mph N/A   Overcast
7:02 PM 37.0 °F 26.7 °F 35.1 °F 93% 29.57 in 1.5 mi East 19.6 mph 27.6 mph N/A   Overcast
7:39 PM 37.0 °F 26.7 °F 35.1 °F 93% 29.57 in 3.0 mi East 19.6 mph - N/A   Overcast
7:45 PM 37.0 °F 27.7 °F 35.1 °F 93% 29.57 in 1.8 mi East 16.1 mph - N/A   Overcast
7:53 PM 37.0 °F 27.4 °F 35.1 °F 93% 29.57 in 0.8 mi ESE 17.3 mph - N/A   Overcast
8:01 PM 36.0 °F 26.3 °F 34.0 °F 93% 29.57 in 0.5 mi East 16.1 mph - N/A Fog Fog
8:12 PM 36.0 °F 26.7 °F 34.0 °F 93% 29.57 in 0.2 mi East 15.0 mph - N/A Fog Fog
8:53 PM 37.0 °F 28.1 °F 37.0 °F 100% 29.58 in 0.2 mi East 15.0 mph - N/A Fog Fog
9:53 PM 37.0 °F 28.1 °F 37.0 °F 100% 29.57 in 0.2 mi East 15.0 mph - N/A Fog Fog
10:53 PM 37.0 °F 28.9 °F 37.0 °F 100% 29.58 in 0.2 mi East 12.7 mph - N/A Fog Fog
11:09 PM 36.0 °F 27.1 °F 36.0 °F 100% 29.57 in 0.2 mi East 13.8 mph - N/A Fog Fog
11:31 PM 35.1 °F 24.8 °F 35.1 °F 100% 29.58 in 1.0 mi East 17.3 mph - N/A   Mist
11:53 PM 35.1 °F 24.8 °F 35.1 °F 100% 29.58 in 1.5 mi East 17.3 mph - N/A   Overcast